Simultaneous Nadir Overpasses (SNOs) Predictions

Prediction of SNOs near equator between NOAA-19 and NPP Satellite Orbit:

Table of predicted SNOs near equator for the next 14.0 days since TLE Epoch: 12/2/2011
Index Date (NOAA-19) Time (NOAA-19) NOAA-19 Lat,Lon Date (NPP) Time (NPP) NPP Lat,Lon Distance(km) Time Diff (sec)
1 12/10/2011 12:06:05 29.98, 16.29 12/10/2011 12:03:36 29.80, 15.34 93.92 149
2 12/10/2011 12:57:03 -29.98,-176.45 12/10/2011 12:54:17 -29.79,-177.33 87.34 166
3 12/10/2011 13:48:10 29.94, -9.23 12/10/2011 13:45:05 29.75, -10.03 80.00 185
4 12/10/2011 14:39:08 -29.94, 158.03 12/10/2011 14:35:47 -29.80, 157.29 73.39 201
5 12/10/2011 15:30:16 29.96, -34.76 12/10/2011 15:26:36 29.82, -35.42 65.93 220
6 12/10/2011 16:21:14 -29.96, 132.50 12/10/2011 16:17:17 -29.81, 131.91 59.46 237
7 12/10/2011 17:12:22 29.98, -60.28 12/10/2011 17:08:07 29.89, -60.81 51.95 255
8 12/10/2011 18:03:20 -29.98, 106.97 12/10/2011 17:58:48 -29.88, 106.52 45.37 272
9 12/10/2011 18:54:27 29.94, -85.80 12/10/2011 18:49:36 29.85, -86.17 38.02 291
10 12/10/2011 19:45:25 -29.95, 81.46 12/10/2011 19:40:18 -29.89, 81.14 31.43 307
11 12/10/2011 20:36:33 29.96,-111.33 12/10/2011 20:31:07 29.91,-111.57 23.94 326
12 12/10/2011 21:27:31 -29.97, 55.93 12/10/2011 21:21:48 -29.90, 55.76 17.70 343
13 12/10/2011 22:18:39 29.98,-136.85 12/10/2011 22:12:38 29.98,-136.96 10.24 361
14 12/10/2011 23:09:37 -29.99, 30.40 12/10/2011 23:03:19 -29.97, 30.37 3.56 378
15 12/10/2011 23:57:17 17.98,-159.25 12/10/2011 23:50:42 17.98,-159.26 0.34 395
16 12/11/2011 00:41:23 6.04, 13.56 12/11/2011 00:34:32 6.03, 13.56 1.70 411
17 12/11/2011 01:32:41 -5.29,-179.38 12/11/2011 01:25:34 -5.27,-179.32 7.43 427
18 12/11/2011 02:24:04 3.98, -12.43 12/11/2011 02:16:37 3.97, -12.28 16.91 447
19 12/11/2011 03:15:23 -3.18, 154.61 12/11/2011 03:07:40 -3.16, 154.83 24.43 463
20 12/11/2011 04:06:45 1.93, -38.43 12/11/2011 03:58:43 1.86, -38.13 33.62 482
21 12/11/2011 04:58:03 -1.20, 128.64 12/11/2011 04:49:45 -1.10, 128.99 41.30 498
22 12/11/2011 05:49:26 -0.13, -64.42 12/11/2011 05:40:49 -0.26, -63.98 50.56 517
23 12/11/2011 06:40:45 0.91, 102.63 12/11/2011 06:31:51 1.02, 103.15 58.21 534
24 12/11/2011 07:40:05 -29.9
